#timestamp,LO_Frequency,Hit,StdDev 
1575831615.9,286047001.2,N
1575831635.7,286047001.7,N
1575831655.6,286047002.4,N
1575831675.4,286047002.6,N
1575831695.2,286047000.8,N
1575831715.1,286046998.3,N
1575831716.0,286046998.3,N
1575831735.8,286047001.0,N
1575831755.6,286047000.9,N
1575831775.5,286047001.7,N
1575831795.3,286047004.4,N
1575831815.2,286047001.7,N
1575831835.9,286047005.4,N
1575831855.7,286047008.8,Y
1575831875.6,286047010.7,P
1575831895.4,286047008.1,N
1575831915.3,286047010.5,N
1575831935.1,286047009.2,N
1575831936.0,286047009.2,N
1575831955.8,286047004.9,N
1575831975.7,286047006.1,N
1575831995.5,286047010.8,Y
1575832015.3,286047002.2,P
1575832035.2,286047001.9,N
1575832055.0,286047001.5,N
1575832055.9,286047001.5,N
1575832075.8,286047002.3,N
1575832095.6,286047002.5,N
1575832115.4,286047001.1,N
1575832135.3,286046999.8,N
1575832155.1,286047002.1,N
1575832175.9,286047002.6,N
1575832195.7,286047003.7,N
1575832215.5,286047004.4,N
1575832235.4,286047002.3,N
1575832255.2,286047001.7,N
1575832275.0,286047002.3,N
1575832275.9,286047002.3,N
1575832295.8,286046999.7,N
1575832315.6,286047000.4,N
1575832335.4,286047000.6,N
1575832355.3,286047002.8,N
1575832375.1,286047002.2,N
1575832395.9,286047004.0,N
1575832415.7,286047001.7,N
1575832435.5,286047003.8,N
1575832455.4,286047004.0,N
1575832475.2,286047004.4,N
1575832495.0,286047003.9,N
1575832496.0,286047003.9,N
1575832515.8,286047005.4,Y
1575832535.6,286047000.8,P
1575832555.5,286047002.4,N
1575832575.3,286046999.7,N
1575832595.1,286047000.4,N
1575832615.9,286046996.8,N
1575832635.7,286047000.7,N
1575832655.6,286046997.0,N
1575832675.4,286046996.6,N
1575832695.2,286047011.9,Y
1575832715.1,286046995.0,P
1575832716.0,286046995.0,N
1575832735.8,286046994.5,N
1575832755.7,286046993.9,N
1575832775.5,286046994.5,N
1575832795.3,286046996.1,N
1575832815.2,286046997.5,N
1575832835.0,286046997.6,N
1575832835.9,286046997.6,N
1575832855.7,286046993.8,Y
1575832875.6,286046996.5,P
1575832895.4,286047000.7,P
1575832915.3,286047000.7,N
1575832935.1,286047002.7,N
1575832936.0,286047002.7,N
1575832955.8,286047002.7,N
1575832975.7,286047000.3,N
1575832995.5,286047002.3,N
1575833015.4,286047002.3,N
1575833035.2,286047001.9,N
1575833055.0,286047002.0,N
1575833055.9,286047002.0,N
1575833075.8,286046999.9,N
1575833095.6,286047000.1,N
1575833115.4,286047006.3,Y
1575833135.3,286047007.5,P
1575833155.1,286047007.5,N
1575833175.9,286047001.4,N
1575833195.7,286047000.6,N
1575833215.5,286047001.2,N
1575833235.4,286047000.1,N
1575833255.2,286047002.6,N
1575833275.0,286047011.9,Y
1575833275.9,286047002.7,P
1575833295.8,286047000.8,P
1575833315.6,286047001.2,N
1575833335.5,286047000.4,N
1575833355.3,286047005.8,Y
1575833375.1,286047002.2,P
1575833395.9,286047002.5,P
1575833415.7,286046998.1,P
1575833435.6,286047002.5,N
1575833455.4,286047001.5,N
1575833475.2,286047000.7,N
1575833495.1,286046999.2,N
1575833496.0,286046999.2,N
1575833515.8,286046999.4,N
1575833535.6,286047002.5,N
1575833555.5,286047000.6,N
1575833575.3,286047000.5,N
1575833595.2,286046998.2,N
1575833615.9,286047002.6,N
1575833635.7,286047005.3,Y
1575833655.6,286047008.2,P
1575833675.4,286047006.5,N
1575833695.3,286047007.5,N
1575833715.1,286047003.6,N
1575833716.0,286047003.6,N
1575833735.8,286047002.3,N
1575833755.7,286047002.0,N
1575833775.5,286047004.2,N
1575833795.3,286047004.8,N
1575833815.2,286047005.4,N
1575833835.0,286047005.0,N
1575833835.9,286047005.0,N
1575833855.8,286047003.3,N
1575833875.6,286047003.8,N
1575833895.4,286047000.1,N
1575833915.3,286046998.6,N
1575833935.1,286046999.3,N
1575833955.9,286046999.5,N
1575833975.7,286046998.6,N
1575833995.5,286046996.6,N
1575834015.4,286046998.6,N
1575834035.2,286047002.8,N
1575834055.0,286047004.2,N
1575834055.9,286047004.2,N
1575834075.8,286047002.0,N
1575834095.6,286047002.1,N
1575834115.5,286047001.3,N
1575834135.3,286047006.9,N
1575834155.1,286047006.2,N
1575834175.9,286047006.7,N
1575834195.7,286047007.0,N
1575834215.5,286047005.5,N
1575834235.4,286047002.9,N
1575834255.2,286047001.8,N
1575834275.1,286047000.2,N
1575834276.0,286047000.2,N
1575834295.8,286047002.1,N
1575834315.6,286047002.2,N
1575834335.5,286047002.8,N
1575834355.3,286047004.1,N
1575834375.1,286047004.7,N
1575834395.9,286047007.5,N
1575834415.7,286047005.2,N
1575834435.6,286047005.9,N
1575834455.4,286047001.8,N
1575834475.2,286047000.9,N
1575834495.1,286047002.6,N
1575834496.0,286047002.6,N
1575834515.8,286047002.1,N
1575834535.7,286047003.0,N
1575834555.5,286047005.2,N
1575834575.3,286047006.0,N
1575834595.2,286047001.3,N
1575834615.0,286047002.7,N
1575834615.9,286047002.7,N
1575834635.7,286047002.8,N
1575834655.6,286047002.1,N
1575834675.4,286047002.3,N
1575834695.3,286047002.0,N
1575834715.1,286047002.1,N
1575834716.0,286047002.1,N
1575834735.8,286047002.0,N
1575834755.7,286046998.1,N
1575834775.5,286046999.4,N
1575834795.4,286046996.6,N
1575834815.2,286046999.2,N
1575834835.0,286046996.6,N
1575834835.9,286046996.6,N
1575834855.8,286046998.2,N
1575834875.6,286046998.8,N
1575834895.4,286046998.8,N
1575834915.3,286046998.9,N
1575834935.1,286046998.5,N
1575834955.9,286047002.7,N
1575834975.7,286046999.8,N
1575834995.5,286047000.8,N
1575835015.4,286046998.6,N
1575835035.2,286046998.5,N
1575835055.0,286047000.7,N
1575835055.9,286047000.7,N
1575835075.8,286047001.4,N
1575835095.6,286047004.4,N
1575835115.5,286047001.8,N
1575835135.3,286047002.9,N
1575835155.1,286047005.4,N
1575835175.9,286047003.1,N
1575835195.7,286046999.7,N
